www.pogodaiklimat.ru

Погода и климат >> Архив погоды >> Китай >> Внутренняя Монголия >> Мандал


ПОГОДА в Мандале

  • Прогноз погоды в Мандале
  • Монитор погоды в Мандале

АРХИВ ПОГОДЫ в Мандале

Время (UTC), дата Ветер
(напр.,м/с)
 
Видим.   Явления Облачность Т
(С)
Тd
(С)
f
(%)
Тe
(С)
Тes
(С)
Комфортность P
(гПа)
Po
(гПа)
Тmin
(С)
Tmax
(С)
R
(мм)
R24
(мм)
S
(см)
12 18.05 н/о
15 18.05 З 6 30 км н/о +8.2 +2.4 67 +4 +4 1010.0 870.6
18 18.05 З 10 10 км ?/? +4.6 -1.8 63 -2 -2 1009.6 870.9 +13.8 0.4
21 18.05 СЗ 12
{19}
24 км слаб. дождь ?/? +3.3 +0.2 80 -4 -4 1010.1 868.4
00 19.05 СЗ 13
{21}
30 км 3/3 600 м
[]
+1.7 -1.7 78 -7 -7 1017.3 876.3 0.5
03 19.05 СЗ 14 23 км ясно +6.4 -9.1 32 +1 +1 1020.1 878.4
06 19.05 С 14
{22}
19 км 4/4 600 м
[]
+9.5 -14.3 17 +5 +5 1021.4 880.9 +1.2
09 19.05 СЗ 13
{26}
30 км 4/4 600 м
[]
+10.3 -16.0 14 +6 +6 1020.5 880.6
12 19.05 С 6
{26}
30 км 6/6 1000 м
[]
+8.9 -13.5 19 +6 +6 1022.0 880.6
15 19.05 З 3 30 км н/о +5.9 -9.5 32 +4 +4 1021.6 879.5
18 19.05 З 5 30 км ?/? +4.8 -13.1 26 +1 +1 1020.7 880.4 +11.1
21 19.05 З 2 30 км н/о +1.3 -11.5 38 -1 -1 1021.0 876.8
00 20.05 З 5 30 км ясно +8.9 -12.8 20 +6 +9 1019.3 880.0
03 20.05 З 8 30 км ясно +14.6 -19.3 8 +13 +16 1017.5 879.9
06 20.05 СЗ 9
{22}
30 км ясно +18.4 -18.1 7 +17 +19 1013.7 876.3 +1.0
09 20.05 С 7
{22}
30 км ясно +20.0 -18.7 6 +19 +20 1012.1 877.6
12 20.05 С 3 30 км ясно +16.5 -14.1 11 +16 +16 1011.6 875.0
15 20.05 З 1 30 км н/о +10.4 -9.8 23 +11 +11 1011.7 873.0
18 20.05 СЗ 4 30 км ?/? +9.7 -9.4 25 +8 +8 1010.4 874.6 +20.0
21 20.05 СЗ 5 30 км н/о +9.9 -9.2 25 +8 +8 1010.1 871.4
00 21.05 СЗ 6 30 км ясно +15.1 -11.3 15 +14 +16 1010.7 875.6
03 21.05 СЗ 8 30 км ясно +20.8 -14.7 8 +19 +22 1010.6 876.7
06 21.05 С 5 30 км ясно +24.3 -20.4 4 +21 +30 комфорт 1008.3 874.0 +8.9
09 21.05 СЗ 8 30 км ясно +25.0 -19.9 4 +21 +23 комфорт 1006.2 874.6
12 21.05 С 2 20 км ясно +21.5 -15.8 7 +20 +20 1005.5 872.1
15 21.05 С 2 14 км н/о +15.4 -12.9 13 +16 +16 1006.4 870.7
18 21.05 З 7 30 км ?/? +16.5 -17.9 8 +15 +15 1004.1 871.8 +25.6
21 21.05 З 5 30 км н/о +13.7 -17.4 10 +12 +12 1003.8 867.7
00 22.05 З 7 30 км ясно +19.6 -17.2 7 +18 +20 1003.9 871.7
03 22.05 З 9 30 км ясно +28.5 -17.5 4 +24 +26 комфорт 1002.7 873.0
06 22.05 СЗ 5 30 км ясно +30.4 -24.2 2 +26 +35 жарко 1000.4 869.8 +13.4
09 22.05 З 7 30 км ясно +31.3 -23.6 2 +26 +28 жарко 999.4 871.2
12 22.05 З 4 30 км ясно +26.5 -26.7 2 +22 +22 комфорт 999.7 869.1
15 22.05 З 4 30 км н/о +19.7 -15.5 8 +19 +19 1000.5 867.4
18 22.05 З 3 30 км ?/? +17.4 -13.4 11 +17 +17 1000.5 870.1 +31.7
21 22.05 З 3 30 км н/о +16.2 -16.7 9 +16 +16 1000.8 866.2
00 23.05 З 2 30 км 9/9
[]
+22.2 -15.2 7 +20 +20 1001.4 871.1
03 23.05 З 8 27 км 9/9 1000 м
[]
+30.1 -24.4 2 +25 +26 комфорт 1000.7 871.9
06 23.05 ЮЗ 7 30 км 9/9
[]
+30.2 -31.8 1 +25 +26 комфорт 999.9 869.5 +15.7
09 23.05 З 7 29 км 9/9
[]
+29.7 -16.6 4 +25 +25 комфорт 999.1 870.3
12 23.05 З 3 30 км 9/9
[]
+26.3 -16.3 5 +23 +23 комфорт 998.5 868.5
15 23.05 ЮЗ 2 30 км н/о +21.2 -11.6 10 +20 +20 998.3 866.2
18 23.05 З 2 30 км ?/? +17.2 -9.7 15 +18 +18 998.1 867.9 +31.5
21 23.05 З 2 30 км н/о +18.3 -8.8 15 +19 +19 997.0 863.8
00 24.05 З 4 30 км 9/9
[]
+22.1 -5.7 15 +21 +21 комфорт 997.3 867.4
03 24.05 З 6 30 км 9/9
[]
+30.2 -7.7 8 +26 +27 жарко 995.6 867.5
06 24.05 З 6 30 км 9/9 600 м
[]
+31.7 -15.3 4 +27 +28 жарко 994.5 865.1 +17.0
09 24.05 З 2 28 км 9/9 600 м
[]
+32.8 -22.7 2 +28 +28 жарко 992.6 865.9
12 24.05 Ю 5 16 км 9/9 600 м
[]
+28.7 -4.6 11 +25 +25 комфорт 993.5 864.6
15 24.05 ЮЗ 7 30 км н/о +24.6 -0.5 19 +23 +23 комфорт 993.5 863.4
18 24.05 З 4 30 км ?/? +20.8 +0.1 25 +21 +21 комфорт 993.8 865.2 +33.6
21 24.05 З 8 30 км н/о +19.1 -1.4 25 +18 +18 994.7 862.1
00 25.05 С 6 13 км 9/9
[]
+17.1 -3.6 24 +16 +17 999.1 868.5
03 25.05 СЗ 4 16 км 9/9 1000 м
[]
+19.8 -3.8 20 +20 +21 1002.9 869.6
06 25.05 СВ 6 30 км 9/9 1000 м
[]
+21.2 -5.6 16 +20 +21 1003.4 871.4 +16.1

 

Местоположение метеостанции Мандал (Внутренняя Монголия, Китай): широта 42.53 долгота 110.13 высота над уровнем моря 1223 м.

В архиве по умолчанию представлена погода в Мандале за последнюю неделю. Архивные данные за месяц целиком и за предыдущие месяцы, начиная с января 2011 года, Вы можете получить, выбрав интересующий диапазон дат из раскрывающегося списка и нажав кнопку "Ввод!".


*Определитесь, кто Вы:
робот инопланетянин человек

Внимание! Время в таблицах - всемирное. Для получения местного времени необходимо прибавить поправку, которая равна 8 ч.

Смотрите также архив погоды в соседних городах и на ближайших метеорологических станциях:

Погода в Дархан-Мумингане (Внутренняя Монголия, Китай) (96 км)
Погода в Хатанбулаге (Монголия) (104 км)
Погода в Хэй Лю Чжэнь (Внутренняя Монголия, Китай) (171 км)
Погода в Замун-Ууде (Монголия) (196 км)
Погода в Эрэн-Хото (Внутренняя Монголия, Китай) (196 км)
Погода в Чжурихе Чжень (Внутренняя Монголия, Китай) (228 км)
Погода в Хух-Хото (Внутренняя Монголия, Китай) (230 км)
Погода в Ханбогде (Монголия) (253 км)
Погода в Сайншанде (Монголия) (264 км)
Погода в Цзинине (Шаньдун, Китай) (295 км)

Пояснения к столбцам:

Ветер - указаны скорость ветра в м/с - средняя за 10 мин, порывы в срок и между сроками (в фигурных скобках) и направление, откуда дует ветер: С - северный, СВ - северо-восточный, В - восточный, ЮВ - юго-восточный, Ю - южный, ЮЗ - юго-западный, З - западный, СЗ - северо-западный.
Видимость - горизонтальная дальность видимости в метрах или километрах. При видимости от 1 до 10 км при отсутствии осадков обычно наблюдается дымка, при ухудшении видимости до 1 км и менее - туман. В сухую погоду видимость может ухудшаться дымом, пылью или мглою.
Явления - указаны атмосферные явления, наблюдавшиеся в срок или в последний час перед сроком; фигурными скобками обозначены явления, наблюдавшиеся между сроками (за 1-3 часа до срока); квадратными скобками обозначены град или гололедные отложения с указанием их диаметра в мм.
Облачность - указаны через наклонную черту общая и нижняя облачность в баллах и высота нижней границы облаков в метрах; квадратными скобками обозначены формы облаков: Ci - перистые, Cs - перисто-слоистые, Cc - перисто-кучевые, Ac - высококучевые, As - высокослоистые, Sc - слоисто-кучевые, Ns - слоисто-дождевые, Cu - кучевые, Cb - кучево-дождевые. Подробнее классификацию облаков см. в Атласе облаков (PDF).
T - Температура воздуха - температура, измеренная на высоте 2 м над землей.
Td - Температура точки росы - температура, при понижении до которой содержащийся в воздухе водяной пар достигнет насыщения.
f - Относительная влажность воздуха - влажноcть воздуха, измеренная на высоте 2 м над землей.
Te - Эффективная температура - температура, которую ощущает одетый по сезону человек в тени. Характеристика душности погоды. При расчете учитывается влияние влажности воздуха и скорости ветра на теплоощущения человека.
Tes - Эффективная температура на солнце - температура, которую ощущает человек, с поправкой на солнечный нагрев. Характеристика знойности погоды. Зависит от высоты солнца над горизонтом, облачности и скорости ветра. Ночью, в пасмурную погоду, а также при ветре 12 м/с и более поправка равна нулю.
P - Атмосферное давление - приведенное к уровню моря атмосферное давление.
Po - Атмосферное давление - измеренное на уровне метеостанции атмосферное давление.
Tmin - Минимальная температура - минимум температуры воздуха на высоте 2 м над землей.
Tmax - Максимальная температура - максимум температуры воздуха на высоте 2 м над землей.
R - Количество осадков - Количество выпавших осадков за период времени, мм. При наведении курсора мыши на число - период времени, за который выпало указанное количество осадков.
R24 - Количество осадков - Количество выпавших осадков за 24 часа, мм.
S - Снежный покров - Высота снежного покрова, см. При наведении курсора мыши на число - состояние снежного покрова и степень покрытия местности в баллах.